Starlink 33653

operational
NORAD ID: 63380 Int'l Des: 2025-063 Owner: SPXS Country: US Constellation: starlink
LEOCIRCULAR

关于 Starlink 33653

正在加载描述...

实时位置

正在加载3D地球...

即将过境

高度历史

Altitude vs Time

uPlot chart will show altitude changes over time

两行轨道根数

1 63380U 25063T 25305.24235615 .00031540 00000-0 10725-2 0 9999
2 63380 53.1591 289.0835 0000545 106.0044 254.1017 15.30200605 35044
Epoch: Nov 1, 2025 • Age: 16 hours

当前状态

高度 477.8 km
速度 7.63 km/s
星下点 37.42°N, 58.82°E
发射日期 Mar 26, 2025
运行时间 0.5 years
类型 internet

技术详情

分类 Payload
质量 575.00 kg
干质量 530.00 kg
总质量 575.00 kg
长度 0.30 m
直径 4.10 m
跨度 29.00 m
形状 Box + pan
制造商 SPXS
平台类型 Starlink V2MO
阶段状态 In Orbit
所有者/国家 SPXS/US

大型星座

Loading constellations...